Marshfield, WI

9:18 PM CST on November 17, 2019 (GMT -0600)
Marshfield Municipal

Weather History for KMFI - September, 2019

Change the Weather History Date:

Sunday, September 29, 2019

  Actual Average Record
Temperature  
Mean Temperature 52 °F -  
Max Temperature 55 °F 65 °F 86 °F (1922)
Min Temperature 48 °F 42 °F 20 °F (1967)
Degree Days  
Heating Degree Days 14    
Growing Degree Days 2 (Base 50)    
Moisture  
Dew Point 49 °F    
Average Humidity 89    
Maximum Humidity 97    
Minimum Humidity 80    
Precipitation  
Precipitation 0.00 in - - ()
Sea Level Pressure  
Sea Level Pressure 30.21 in    
Wind  
Wind Speed 12 mph (ESE)    
Max Wind Speed 20 mph    
Max Gust Speed 29 mph    
Visibility 7 miles    
Events Rain    
Averages and records for this station are not official NWS values.
T = Trace of Precipitation, MM = Missing Value Source: NWS Daily Summary

Daily Weather History Graph

Daily Weather History Graph

Search for Another Location

Airport or City:

Astronomy

Sep. 29, 2019 Rise Set
Actual Time 6:56 AM CDT 6:45 PM CDT
Civil Twilight 6:26 AM CDT 7:14 PM CDT
Nautical Twilight 5:52 AM CDT 7:48 PM CDT
Astronomical Twilight 5:18 AM CDT 8:22 PM CDT
Moon 7:47 AM CDT (9/29) 7:44 PM CDT (9/29)
Length of Visible Light 12h 47m
Length of Day
11h 49m
New Moon, 1% of the Moon is Illuminated
Sep 29
New Moon
Oct 5
First Quarter
Oct 13
Full
Oct 21
Last Quarter
Oct 27
New

Hourly Weather History & Observations

Time (CDT) Temp. Dew Point Humidity Pressure Visibility Wind Dir Wind Speed Gust Speed Precip Events Conditions
12:54 AM 48.9 °F 43.0 °F 80% 30.28 in 10.0 mi East 8.1 mph - N/A   Clear
1:54 AM 48.9 °F 44.1 °F 83% 30.29 in 10.0 mi East 8.1 mph - N/A   Partly Cloudy
2:54 AM 50.0 °F 44.1 °F 80% 30.28 in 10.0 mi East 11.5 mph - N/A   Overcast
3:54 AM 50.0 °F 44.1 °F 80% 30.27 in 10.0 mi East 12.7 mph 20.7 mph 0.00 in   Overcast
4:54 AM 50.0 °F 46.0 °F 86% 30.27 in 10.0 mi East 15.0 mph 24.2 mph 0.00 in Rain Light Rain
5:54 AM 48.9 °F 46.0 °F 90% 30.27 in 10.0 mi East 13.8 mph - 0.00 in Rain Light Rain
6:54 AM 48.9 °F 46.0 °F 90% 30.28 in 10.0 mi East 12.7 mph 23.0 mph 0.00 in   Overcast
7:09 AM 48.9 °F 46.0 °F 90% 30.26 in 10.0 mi East 15.0 mph - N/A   Overcast
7:16 AM 48.9 °F 46.0 °F 90% 30.26 in 10.0 mi East 16.1 mph 24.2 mph N/A   Overcast
7:54 AM 50.0 °F 46.0 °F 86% 30.28 in 10.0 mi East 16.1 mph 25.3 mph N/A   Overcast
8:54 AM 50.0 °F 46.0 °F 86% 30.28 in 10.0 mi East 16.1 mph 25.3 mph N/A   Overcast
9:26 AM 50.0 °F 46.9 °F 89% 30.26 in 10.0 mi East 16.1 mph 24.2 mph N/A   Overcast
9:54 AM 51.1 °F 46.9 °F 86% 30.28 in 10.0 mi East 17.3 mph 24.2 mph N/A   Overcast
10:54 AM 51.1 °F 46.9 °F 86% 30.26 in 6.0 mi East 13.8 mph 24.2 mph 0.00 in   Overcast
11:07 AM 51.1 °F 46.9 °F 86% 30.24 in 5.0 mi East 19.6 mph 28.8 mph N/A   Overcast
11:54 AM 51.1 °F 48.0 °F 89% 30.25 in 8.0 mi ESE 13.8 mph 24.2 mph N/A   Overcast
12:54 PM 52.0 °F 48.0 °F 86% 30.23 in 10.0 mi ESE 13.8 mph 27.6 mph N/A   Overcast
1:54 PM 53.1 °F 50.0 °F 89% 30.21 in 4.0 mi East 11.5 mph 20.7 mph N/A   Overcast
2:24 PM 54.0 °F 48.9 °F 83% 30.18 in 10.0 mi ESE 15.0 mph - N/A   Overcast
2:54 PM 54.0 °F 50.0 °F 86% 30.20 in 10.0 mi ESE 13.8 mph 20.7 mph N/A   Overcast
3:54 PM 54.0 °F 51.1 °F 90% 30.18 in 3.0 mi ESE 11.5 mph - N/A   Overcast
4:54 PM 54.0 °F 52.0 °F 93% 30.17 in 4.0 mi ESE 10.4 mph 20.7 mph N/A   Overcast
5:54 PM 55.0 °F 52.0 °F 89% 30.15 in 4.0 mi East 11.5 mph - N/A   Overcast
6:54 PM 54.0 °F 52.0 °F 93% 30.14 in 3.0 mi ESE 11.5 mph - N/A   Overcast
7:41 PM 54.0 °F 53.1 °F 97% 30.12 in 5.0 mi ESE 12.7 mph - N/A   Overcast
7:54 PM 55.0 °F 53.1 °F 93% 30.14 in 4.0 mi ESE 11.5 mph - N/A   Overcast
8:54 PM 55.0 °F 53.1 °F 93% 30.14 in 2.5 mi ESE 10.4 mph - N/A   Overcast
9:08 PM 55.0 °F 53.1 °F 93% 30.12 in 3.0 mi ESE 9.2 mph - N/A   Overcast
9:54 PM 55.0 °F 53.1 °F 93% 30.12 in 3.0 mi ESE 11.5 mph - N/A   Overcast
10:54 PM 55.0 °F 53.1 °F 93% 30.12 in 6.0 mi ESE 11.5 mph - N/A   Overcast
11:52 PM 55.4 °F 53.6 °F 94% 30.10 in 2.5 mi ESE 10.4 mph - 0.00 in Rain Light Rain
11:54 PM 55.0 °F 54.0 °F 96% 30.12 in 2.5 mi ESE 10.4 mph - 0.00 in Rain Light Rain